Погода в Ирвайне

США     33°40′14″N   117°46′51″W
темп.,
°C
ветер,
м/с
пор.,
м/с
влажн.,
%
обл.,
%
осадки,
мм/ч
давл.,
гПа
погр.,
м
15 мая, сб
сб1523:00+14ююз238026 0.0 1014359
02:00+14ю227687 0.0 1014632
05:00+14ю227286 0.0 1013703
08:00+15ю336783 0.0 1014828
11:00+19юз32529 0.0 1013983
14:00+20юз54482 0.0 10121032
17:00+19юз54530 0.0 1011943
20:00+15юз447064 0.0 1013622
16 мая, вс
вс1623:00+15ююз336999 0.0 1014923
02:00+14ююз3375100 0.1 1013651
05:00+14ююз3379100 0.3 1014633
08:00+14ююз237699 0.3 1015637
11:00+16ююз3366100 0.3 10151004
14:00+17юз436097 0.1 10151234
17:00+16юз336379 0.1 10141001
20:00+15юз336656 0.0 1015624
17 мая, пн
пн1723:00+15юз227186 0.0 1016622
02:00+14юз227486 0.0 1016580
05:00+14юз2275100 0.1 1016486
08:00+15юз227486 0.0 1016585
11:00+18зюз326093 0.1 10161100
14:00+21зюз53492 0.0 10151078
17:00+20зюз43540 0.0 1014859
20:00+16юз22700 0.0 1014370
18 мая, вт
вт1823:00+15ююз338034 0.0 1015353
02:00+15ююв227872 0.0 1014500
05:00+14ююв227964 0.0 1014415
08:00+16ююв117151 0.0 1014665
11:00+20юз32545 0.0 1014956
14:00+22зюз42460 0.0 1012913
17:00+23юз43450 0.0 1010669
20:00+18ююз23600 0.0 1011234
19 мая, ср
ср1923:00+16ю23740 0.0 1012216
02:00+15всв127537 0.0 101182
05:00+14з0180100 0.0 101166
08:00+17зюз1169100 0.0 1011302
11:00+21зюз3152100 0.0 1011742
14:00+24юз43435 0.0 1009858
17:00+21юз545297 0.0 1009722
20:00+17ю4569100 0.0 1010373